[[{"header":{"parameterUnit":"m.s-1","parameterCategory":1,"la1":30.2991,"la2":30.254,"lo1":-89.0895,"lo2":-89.0444,"dy":0.0017,"dx":0.0017,"nx":28,"ny":28,"refTime":"2023-08-17T21:00:00:Z","depth":0,"parameterNumber":2,"parameterNumberName":"U-component_of_WINDS"},"data":[0,0,0,0,0,0,0,0,0,0,0,0,0,0,0,0,0,0,0,0,0,0,0,0,0,0,0,0,0,0,0,0,0,0,0,0,0,0,0,0,0,0,0,0,0,0,0,0,0,0,0,0,0,0,0,0,0,0,0.506,0.5061,0,0.5172,0.5173,0.5175,0.5197,0.5196,0.5195,0.5195,0.5313,0.5317,0.532,0,0,0,0,0,0,0,0,0,0,0,0,0,0.4866,0.487,0.506,0.5061,0.5063,0.5172,0.5173,0.5175,0.5197,0.5196,0.5195,0.5194,0.5311,0.5316,0.5321,0,0,0,0,0,0,0,0,0,0,0,0,0,0.4962,0.4871,0.5059,0.5087,0.509,0.5172,0.5173,0.5175,0.5198,0.5196,0.5195,0.5194,0.531,0.5316,0.5321,0.5384,0,0,0.534,0.5342,0,0,0,0,0,0,0,0,0.4956,0.4969,0.5081,0.5085,0.5089,0.5169,0.5149,0.5246,0.5198,0.5157,0.5195,0.5193,0.5266,0.5276,0.53,0.539,0.5395,0.534,0.5344,0.5346,0.5348,0,0,0,0,0,0,0,0.495,0.4964,0.5104,0.5083,0.5088,0.5094,0.5106,0.5167,0.5218,0.516,0.5162,0.5175,0.5268,0.5294,0.5303,0.5397,0.534,0.5345,0.5349,0.5351,0.5543,0.5544,0,0,0,0,0,0,0.4938,0.4958,0.5101,0.5108,0.5018,0.5098,0.5112,0.5145,0.5217,0.5227,0.5176,0.5176,0.5284,0.5296,0.5307,0.5384,0.5346,0.5352,0.5355,0.5541,0.5543,0.5545,0,0,0,0,0,0,0.4934,0.495,0.5096,0.5034,0.5053,0.5103,0.514,0.5148,0.5174,0.5229,0.5238,0.5193,0.5284,0.5299,0.5364,0.5389,0.5355,0.536,0.5539,0.5542,0.5544,0.554,0,0,0,0,0,0,0.4928,0.4949,0.4973,0.5034,0.5056,0.5151,0.5141,0.5151,0.5183,0.5184,0.5247,0.5257,0.5284,0.5355,0.537,0.5396,0.5365,0.5537,0.554,0.5543,0.5538,0.5541,0.5545,0,0,0,0,0,0.4921,0.4968,0.4974,0.4991,0.5087,0.5153,0.5165,0.5195,0.5185,0.521,0.5245,0.5254,0.5383,0.5362,0.5379,0.5407,0.5536,0.5539,0.5543,0.5536,0.5541,0.5544,0,0,0,0,0,0,0.491,0.4977,0.4984,0.5052,0.5096,0.5156,0.5188,0.5199,0.5248,0.5246,0.5282,0.5296,0.536,0.539,0.5365,0.5471,0.5459,0.5466,0.5448,0.5453,0.5456,0.5448,0.5369,0,0,0,0,0,0.4915,0.4962,0.5018,0.5073,0.5095,0.5138,0.5167,0.5186,0.5234,0.5253,0.5293,0.534,0.5391,0.5424,0.5474,0.5542,0.5556,0.557,0.5573,0.5576,0.5581,0.5618,0.5625,0.5556,0.5556,0.5556,0,0,0.4927,0.4969,0.4997,0.5072,0.5108,0.5157,0.5153,0.5205,0.5241,0.5261,0.5325,0.5356,0.5411,0.5477,0.5509,0.5505,0.5603,0.558,0.5582,0.5586,0.5623,0.5629,0.5635,0.5558,0.5558,0.5557,0,0,0.4973,0.501,0.5059,0.5095,0.515,0.5178,0.5189,0.5247,0.5268,0.5333,0.5348,0.5392,0.548,0.5517,0.5548,0.5606,0.5616,0.5622,0.5639,0.5675,0.568,0.5685,0.5705,0.5712,0.5627,0.5627,0.5627,0,0.4981,0.5053,0.5083,0.5133,0.5165,0.5184,0.5234,0.5268,0.5337,0.5359,0.5353,0.5461,0.55,0.5575,0.5589,0.5613,0.5627,0.5615,0.5677,0.5682,0.5688,0.5707,0.5714,0.5627,0.5627,0.5627,0.5627,0,0.506,0.511,0.5143,0.5207,0.5243,0.5293,0.533,0.5363,0.5379,0.5407,0.5472,0.5518,0.5577,0.5596,0.5613,0.5674,0.5669,0.567,0.5659,0.5694,0.5713,0.572,0.5628,0.5627,0.5627,0.5627,0,0,0.5103,0.5181,0.5193,0.5221,0.5283,0.5322,0.5373,0.5429,0.5456,0.5503,0.5546,0.5618,0.5618,0.5653,0.5674,0.5705,0.5747,0.5702,0.5704,0.5708,0.5816,0.5814,0.5823,0.5754,0.5755,0.5757,0.5811,0,0.5155,0.5245,0.5272,0.5347,0.5393,0.5412,0.5456,0.5498,0.5526,0.5569,0.56,0.5651,0.5648,0.5668,0.57,0.5735,0.5769,0.5731,0.5794,0.5796,0.5779,0.5833,0.5832,0.5881,0.5818,0.582,0.5821,0,0.5229,0.5275,0.5354,0.5408,0.5428,0.5467,0.552,0.5561,0.561,0.5628,0.5665,0.5683,0.5736,0.5722,0.5796,0.577,0.5797,0.5818,0.582,0.5827,0.581,0.584,0.5897,0.5904,0.5833,0.5832,0.5831,0,0.525,0.5332,0.539,0.5414,0.5479,0.5505,0.5534,0.5581,0.5612,0.5659,0.568,0.5732,0.5761,0.5802,0.5833,0.582,0.5904,0.5893,0.592,0.5919,0.5937,0.5935,0.5999,0.5955,0.5955,0.5955,0.5955,0,0.5306,0.5353,0.54,0.5436,0.5489,0.5521,0.5573,0.5602,0.5644,0.5685,0.5705,0.5743,0.5783,0.5827,0.5852,0.5908,0.5922,0.5938,0.5944,0.5936,0.5933,0.5954,0.5951,0.5957,0.5957,0.5956,0.5956,0,0.5339,0.5373,0.5436,0.5492,0.5507,0.5544,0.5591,0.5626,0.5654,0.5707,0.5721,0.5765,0.5818,0.5853,0.5921,0.5937,0.5999,0.6004,0.5982,0.5985,0.601,0.6007,0.6088,0.61,0.6049,0.605,0.605,0,0.5372,0.5409,0.5467,0.5496,0.5524,0.557,0.5602,0.5634,0.5666,0.5723,0.5751,0.5805,0.5849,0.5932,0.5971,0.6023,0.6029,0.6054,0.6037,0.6028,0.6029,0.6026,0.6029,0.6057,0.6057,0.6058,0.6058,0,0.5426,0.5441,0.5485,0.5536,0.5573,0.5614,0.5656,0.5678,0.5717,0.5753,0.5806,0.584,0.5908,0.5961,0.6016,0.6046,0.6058,0.6063,0.6072,0.6064,0.6049,0.6056,0.5988,0.6061,0.6061,0.606,0.606,0.606,0.546,0.5493,0.5539,0.5588,0.5622,0.566,0.5695,0.5727,0.5771,0.5828,0.5845,0.59,0.5947,0.6021,0.6052,0.6096,0.6093,0.6107,0.611,0.6112,0.6112,0.6042,0.6106,0.6106,0.6106,0.6106,0.6106,0,0.5514,0.5544,0.5589,0.5646,0.5684,0.5691,0.5737,0.5769,0.5817,0.5859,0.5901,0.5962,0.6013,0.6055,0.6108,0.6135,0.6142,0.6147,0.6145,0.6152,0.6112,0.6098,0.6141,0.6141,0.6141,0.6141,0.6141,0.6141,0.5547,0.5603,0.5622,0.5695,0.5725,0.5778,0.5804,0.5839,0.5872,0.5939,0.5981,0.6007,0.6049,0.6105,0.6152,0.6163,0.6181,0.6185,0.6197,0.6159,0.6155,0.6151,0.6139,0.6189,0.6189,0.6234,0.6234,0.6235]},{"header":{"parameterUnit":"m.s-1","parameterCategory":1,"la1":30.2991,"la2":30.254,"lo1":-89.0895,"lo2":-89.0444,"dy":0.0017,"dx":0.0017,"nx":28,"ny":28,"refTime":"2023-08-17T21:00:00:Z","depth":0,"parameterNumber":3,"parameterNumberName":"V-component_of_WINDS"},"data":[0,0,0,0,0,0,0,0,0,0,0,0,0,0,0,0,0,0,0,0,0,0,0,0,0,0,0,0,0,0,0,0,0,0,0,0,0,0,0,0,0,0,0,0,0,0,0,0,0,0,0,0,0,0,0,0,0,0,4.7992,4.7991,0,4.7933,4.7932,4.7931,4.7847,4.7846,4.7844,4.7843,4.7781,4.7781,4.778,0,0,0,0,0,0,0,0,0,0,0,0,0,4.8032,4.8032,4.7992,4.7991,4.7991,4.7933,4.7932,4.7931,4.7847,4.7846,4.7844,4.7842,4.7781,4.7781,4.778,0,0,0,0,0,0,0,0,0,0,0,0,0,4.7998,4.8032,4.7992,4.7942,4.7937,4.7933,4.7932,4.7931,4.7848,4.7845,4.7843,4.7841,4.7781,4.7781,4.778,4.7821,0,0,4.7779,4.7779,0,0,0,0,0,0,0,0,4.8,4.7997,4.795,4.7945,4.794,4.7895,4.7923,4.7894,4.7848,4.7881,4.7843,4.784,4.7821,4.7817,4.781,4.7818,4.7815,4.7779,4.7779,4.7778,4.7778,0,0,0,0,0,0,0,4.8002,4.7999,4.7968,4.7949,4.7943,4.7922,4.7915,4.7917,4.7864,4.7878,4.7872,4.7866,4.7817,4.7811,4.7808,4.7814,4.7779,4.7779,4.7778,4.7778,4.7852,4.7854,0,0,0,0,0,0,4.8012,4.8001,4.797,4.7967,4.7965,4.7923,4.7915,4.7912,4.7864,4.7854,4.7868,4.7863,4.7813,4.7809,4.7806,4.7849,4.7778,4.7778,4.7778,4.7849,4.7852,4.7854,0,0,0,0,0,0,4.8014,4.8011,4.7973,4.7982,4.7976,4.7925,4.7922,4.7911,4.7905,4.7856,4.7846,4.7872,4.7811,4.7806,4.7818,4.7846,4.7778,4.7777,4.7847,4.785,4.7853,4.7938,0,0,0,0,0,0,4.8015,4.8011,4.8026,4.7983,4.7976,4.7986,4.7923,4.7912,4.7905,4.7897,4.7856,4.7848,4.7809,4.7819,4.7817,4.7844,4.7777,4.7844,4.7848,4.7852,4.7932,4.7943,4.7953,0,0,0,0,0,4.8017,4.8052,4.8028,4.8024,4.7993,4.7988,4.7984,4.7939,4.7907,4.7922,4.789,4.7849,4.7844,4.7821,4.7818,4.7846,4.7842,4.7847,4.7852,4.7927,4.7941,4.7953,0,0,0,0,0,0,4.81,4.8046,4.8018,4.804,4.802,4.7974,4.7991,4.7955,4.7942,4.7935,4.7879,4.7871,4.7889,4.7868,4.7844,4.7882,4.7836,4.7841,4.7895,4.7907,4.7918,4.7922,4.7777,0,0,0,0,0,4.8121,4.8122,4.8074,4.8099,4.809,4.8042,4.8038,4.8006,4.7981,4.7972,4.7941,4.7919,4.7912,4.7909,4.79,4.7929,4.7918,4.7946,4.7957,4.7966,4.797,4.7983,4.7995,4.7871,4.7871,4.7871,0,0,4.8164,4.8135,4.8138,4.8115,4.8094,4.8096,4.8035,4.8039,4.8039,4.7972,4.7981,4.7958,4.7929,4.795,4.7957,4.7933,4.8003,4.7972,4.798,4.7979,4.799,4.8002,4.8012,4.7874,4.7874,4.7873,0,0,4.8244,4.8222,4.824,4.8221,4.8191,4.816,4.8164,4.8124,4.8106,4.8114,4.8063,4.8063,4.8053,4.8034,4.8023,4.8097,4.8058,4.8095,4.815,4.8163,4.8173,4.8182,4.8207,4.8217,4.81,4.81,4.81,0,4.8301,4.8301,4.8253,4.826,4.8251,4.8191,4.8208,4.8193,4.8162,4.8157,4.813,4.8116,4.8092,4.8107,4.8125,4.8119,4.8122,4.8099,4.8176,4.8184,4.8191,4.8214,4.8224,4.8105,4.8104,4.8104,4.8104,0,4.8373,4.8374,4.8392,4.8364,4.8356,4.8369,4.8323,4.8321,4.8289,4.8261,4.8269,4.8239,4.8223,4.8224,4.8193,4.8235,4.822,4.8186,4.8139,4.8208,4.8229,4.8238,4.8112,4.811,4.8109,4.8107,0,0,4.8501,4.8447,4.8455,4.8441,4.8404,4.8404,4.8414,4.8398,4.8398,4.8379,4.8385,4.8378,4.8345,4.8333,4.83,4.8312,4.8371,4.8275,4.8274,4.8293,4.8413,4.8439,4.845,4.8345,4.8347,4.8348,4.8416,0,4.8573,4.8586,4.8544,4.8568,4.8568,4.8511,4.8519,4.8498,4.8471,4.8467,4.8437,4.8433,4.8391,4.8383,4.8393,4.8362,4.8394,4.8356,4.8349,4.835,4.8357,4.8461,4.8488,4.8553,4.8424,4.8425,4.8426,0,4.8657,4.8643,4.8667,4.8629,4.8628,4.8636,4.8618,4.8615,4.8589,4.8569,4.8556,4.8517,4.8523,4.848,4.8487,4.8462,4.8457,4.8441,4.8443,4.844,4.8391,4.846,4.8573,4.8583,4.8438,4.8437,4.8437,0,4.8748,4.8735,4.8747,4.8738,4.8694,4.8701,4.8683,4.8655,4.8648,4.8633,4.8628,4.8614,4.8605,4.8595,4.8553,4.8525,4.8565,4.8517,4.8547,4.8549,4.8557,4.8557,4.867,4.8556,4.8556,4.8556,4.8556,0,4.8831,4.8848,4.8787,4.8795,4.8812,4.8763,4.8781,4.8758,4.8734,4.8735,4.8686,4.8688,4.8633,4.863,4.8597,4.8607,4.8604,4.8588,4.8578,4.8591,4.8593,4.8586,4.858,4.8558,4.8558,4.8557,4.8557,0,4.8934,4.8894,4.8904,4.8862,4.8852,4.8867,4.883,4.8836,4.8806,4.8809,4.8807,4.8761,4.8754,4.8712,4.8695,4.8673,4.8695,4.8677,4.8704,4.8698,4.873,4.8727,4.8841,4.8854,4.8733,4.8734,4.8735,0,4.8989,4.9001,4.896,4.8958,4.8943,4.894,4.8933,4.8886,4.8881,4.8852,4.8861,4.885,4.8839,4.8831,4.8795,4.8782,4.8763,4.8804,4.8761,4.8773,4.8763,4.8762,4.8763,4.8813,4.8815,4.8816,4.8817,0,4.9091,4.9071,4.9063,4.9049,4.9042,4.9029,4.9012,4.9013,4.896,4.8957,4.895,4.8941,4.8924,4.8914,4.8895,4.8876,4.8838,4.8831,4.8837,4.885,4.8865,4.8856,4.8728,4.8829,4.8827,4.8827,4.8826,4.8826,4.9171,4.9178,4.9151,4.9144,4.9127,4.9113,4.9115,4.9087,4.908,4.9063,4.9036,4.9032,4.9006,4.8976,4.896,4.8956,4.8934,4.8943,4.8945,4.8948,4.8955,4.8867,4.8953,4.8952,4.8952,4.8952,4.8951,0,4.9269,4.9249,4.9243,4.9222,4.9216,4.9182,4.9162,4.9159,4.9157,4.9136,4.9126,4.9118,4.9108,4.9072,4.9058,4.9062,4.9044,4.906,4.9058,4.9054,4.8975,4.8971,4.9074,4.9074,4.9074,4.9074,4.9074,4.9074,4.932,4.933,4.9308,4.9309,4.9289,4.9285,4.9277,4.9263,4.9246,4.9239,4.9231,4.9208,4.9181,4.9164,4.9153,4.9143,4.914,4.9161,4.9145,4.9072,4.906,4.9049,4.9044,4.9161,4.9161,4.9224,4.9225,4.9225]}]]